Regional Weather Roundup
Issued by NWS

Home | Current Version | Previous Version | Text Only | Print | Product List | Glossary Off
Versions: 1 2 3 4 5 6 7 8 9 10 11 12 13 14 15 16 17 18 19 20 21 22 23 24 25 26 27 28 29 30 31 32 33 34 35 36 37 38 39 40 41 42 43 44 45 46 47 48 49 50

000
ASUS43 KOAX 162002
RWRNE

WEATHER ROUNDUP FOR NEBRASKA
NATIONAL WEATHER SERVICE OMAHA NE
300 PM CDT WED APR 16 2014

NOTES: SATELLITE DATA IS BEING USED TO AUGMENT CLOUD COVER ABOVE
       12000 FEET.
       "FAIR" INDICATES FEW OR NO CLOUDS BELOW 12,000 FEET WITH NO
       SIGNIFICANT WEATHER AND/OR OBSTRUCTIONS TO VISIBILITY.

  * THESE STATIONS DO NOT REPORT WEATHER SUCH AS RAIN...SNOW OR FOG.

NEZ001>004-019>022-054>056-162100-
NEBRASKA PANHANDLE

CITY           SKY/WX    TMP DP  RH WIND       PRES   REMARKS
SCOTTSBLUFF    PTSUNNY   53  20  27 NW25G33   29.95R
ALLIANCE       CLOUDY    47  35  63 N20       29.94R
CHADRON        CLOUDY    45  35  68 NE14G22   29.98R
KIMBALL        PTSUNNY   48  20  33 N23G29    29.94R
SIDNEY         PTSUNNY   53  23  31 N28G38    29.93R
$$

NEZ057>060-069>072-079>082-162100-
SOUTHWEST NEBRASKA

CITY           SKY/WX    TMP DP  RH WIND       PRES   REMARKS
NORTH PLATTE   PTSUNNY   53  35  50 N17G29    29.90R
IMPERIAL       CLOUDY    51  33  50 N21       29.92R
LEXINGTON      PTSUNNY   53  37  54 N28G37    29.87R
MCCOOK         PTSUNNY   57  34  41 N28G38    29.88R
OGALLALA       CLOUDY    50  32  50 N25       29.92R
$$

NEZ005>010-023>029-035>040-094-162100-
NORTH CENTRAL NEBRASKA

CITY           SKY/WX    TMP DP  RH WIND       PRES   REMARKS
VALENTINE      CLOUDY    36  30  79 NW23      29.95R WCI  24
AINSWORTH      CLOUDY    36  31  83 N25G31    29.93R WCI  24
BROKEN BOW     PTSUNNY   46  35  65 N26G35    29.87R
O`NEILL        CLOUDY    38  28  67 NW32G40   29.87R WCI  25
ORD            LGT RAIN  42  32  67 NW22G33   29.86R
THEDFORD       CLOUDY    44  34  66 NW16G24   29.93R
$$

NEZ041-046>049-061>064-073>077-083>087-162100-
SOUTH CENTRAL NEBRASKA

CITY           SKY/WX    TMP DP  RH WIND       PRES   REMARKS
GRAND ISLAND   PTSUNNY   50  34  54 N28G41    29.82R
AURORA         CLOUDY    54  36  49 NW25G32   29.80R
HASTINGS       PTSUNNY   53  35  50 N25G33    29.81R
HEBRON         PTSUNNY   64  39  39 NW22G30   29.76R
HOLDREGE       MOSUNNY   53  37  53 N22G30    29.84R
KEARNEY *      PTSUNNY   52  36  54 NW26G35   29.85R
YORK           PTSUNNY   57  36  44 NW32G38   29.76R
$$

NEZ011>018-030>034-042>045-162100-
NORTHEAST NEBRASKA

CITY           SKY/WX    TMP DP  RH WIND       PRES   REMARKS
NORFOLK        CLOUDY    45  32  60 NW26G35   29.77R
ALBION         CLOUDY    40  31  69 NW29G36   29.81R WCI  29
BLAIR          MOSUNNY   66  28  24 S26G38    29.67F
COLUMBUS *     PTSUNNY   54  34  47 NW24G33   29.77R
FREMONT        MOSUNNY   66  28  23 W15G26    29.68F
TEKAMAH        PTSUNNY   68  26  20 SW26G38   29.66F
$$

NEZ050>053-065>068-078-088>093-162100-
SOUTHEAST NEBRASKA

CITY           SKY/WX    TMP DP  RH WIND       PRES   REMARKS
LINCOLN        SUNNY     69  30  23 W20G31    29.71R
OMAHA EPPLEY   MOSUNNY   67  25  20 SW25G39   29.69S
BEATRICE       MOSUNNY   70  27  20 SW21G32   29.71S
NEBRASKA CITY  PTSUNNY   68  28  22 SW31G40   29.72S
PLATTSMOUTH    MOSUNNY   68  23  18 SW28G38   29.71R
$$

NEZ044-045-051>053-067-162100-
OMAHA AREA

CITY           SKY/WX    TMP DP  RH WIND       PRES   REMARKS
OMAHA EPPLEY   MOSUNNY   67  25  20 SW25G39   29.69S
BLAIR          MOSUNNY   66  28  24 S26G38    29.67F
FREMONT        MOSUNNY   66  28  23 W15G26    29.68F
MILLARD        MOSUNNY   65  28  24 SW13G24   29.69S
OFFUTT AFB     MOSUNNY   68  28  22 SW22G31   29.69R
PLATTSMOUTH    MOSUNNY   68  23  18 SW28G38   29.71R
WAHOO          FAIR      67  24  20 SW20G26   29.68S
$$



USA.gov is the U.S. government's official web portal to all federal, state and local government web resources and services.